Location: Albany
(35.0170°S, 117.8920°E)
Time: 01:34:22
(UTC+08:00)

Explorer 7 - Pass Details

Date: 23 January 2021
Orbit: 484 x 677 km, 50.3° (Epoch: 01 March)

Event Time Altitude Azimuth Distance (km) Brightness Sun altitude
Rises 16:19:54 0° 309° (NW) 3,025 11.2 35.3°
Reaches altitude 10° 16:22:17 10° 307° (NW) 2,112 10.6 34.8°
Maximum altitude 16:27:12 79° 220° (SW) 686 8.0 33.8°
Drops below altitude 10° 16:32:00 10° 132° (SE) 2,065 9.5 32.8°
Sets 16:34:18 0° 131° (SE) 2,953 10.2 32.3°
